Precipitable_Water
0.30 0.19 0.16 0.14 0.15 0.16 0.18 0.19 0.19 0.18 0.18 0.17 0.17 0.16 0.15 0.14 0.15 0.17 0.18 0.22 0.25 0.19 0.16 0.17 0.17 0.16 0.16 0.17 0.17 0.19 0.21 0.21 0.20 0.19 0.19 0.20 0.21 0.22 0.23 0.24 0.26 0.28 0.28 0.34 0.37 0.40 0.41 0.43 0.44 0.45 0.47 0.48 0.50 0.51 0.52 0.53 0.54 0.57 0.58 0.59 0.58 0.62 0.66 0.65 0.64 0.64 0.65 0.65 0.69 0.72 0.73 0.75 0.82 0.88 0.93 0.92 0.96 1.04 1.07 1.09 1.15 1.20 1.20 1.17 1.11 1.07
0.26 0.18 0.16 0.17 0.19 0.20 0.21 0.22 0.21 0.20 0.20 0.18 0.16 0.16 0.15 0.15 0.13 0.17 0.18 0.23 0.25 0.18 0.16 0.18 0.16 0.15 0.16 0.17 0.17 0.19 0.19 0.17 0.17 0.18 0.18 0.18 0.20 0.21 0.22 0.23 0.24 0.26 0.30 0.32 0.32 0.35 0.38 0.41 0.43 0.45 0.46 0.46 0.45 0.48 0.51 0.51 0.53 0.56 0.59 0.58 0.60 0.62 0.64 0.65 0.64 0.64 0.65 0.67 0.68 0.67 0.70 0.75 0.81 0.89 0.91 0.88 0.99 1.04 1.04 1.09 1.17 1.21 1.20 1.18 1.10 1.02
0.18 0.15 0.17 0.20 0.23 0.23 0.23 0.22 0.23 0.21 0.19 0.19 0.17 0.17 0.15 0.15 0.17 0.19 0.20 0.22 0.23 0.20 0.16 0.18 0.15 0.14 0.16 0.17 0.17 0.17 0.17 0.17 0.18 0.18 0.18 0.19 0.20 0.21 0.22 0.23 0.24 0.26 0.27 0.30 0.31 0.33 0.35 0.38 0.40 0.42 0.44 0.45 0.46 0.48 0.49 0.52 0.54 0.55 0.56 0.58 0.60 0.62 0.62 0.63 0.65 0.65 0.63 0.68 0.71 0.71 0.72 0.76 0.81 0.88 0.90 0.91 0.90 0.95 1.03 1.15 1.18 1.20 1.19 1.16 1.09 1.05
0.14 0.16 0.20 0.23 0.23 0.21 0.21 0.21 0.21 0.21 0.20 0.18 0.18 0.15 0.13 0.16 0.13 0.12 0.19 0.22 0.22 0.19 0.16 0.18 0.16 0.14 0.15 0.16 0.15 0.16 0.17 0.16 0.18 0.19 0.19 0.21 0.20 0.21 0.22 0.24 0.25 0.26 0.27 0.28 0.30 0.31 0.34 0.36 0.38 0.39 0.41 0.43 0.46 0.48 0.49 0.50 0.52 0.54 0.55 0.57 0.59 0.61 0.62 0.63 0.65 0.67 0.69 0.70 0.72 0.74 0.75 0.80 0.84 0.83 0.90 0.93 0.90 0.93 1.02 1.10 1.14 1.15 1.14 1.12 1.07 1.06
0.14 0.19 0.25 0.23 0.23 0.21 0.18 0.20 0.19 0.18 0.16 0.19 0.18 0.16 0.15 0.15 0.16 0.15 0.16 0.20 0.22 0.23 0.23 0.19 0.16 0.13 0.13 0.12 0.13 0.16 0.19 0.18 0.18 0.20 0.20 0.21 0.22 0.23 0.25 0.26 0.27 0.27 0.28 0.28 0.30 0.32 0.33 0.35 0.37 0.39 0.40 0.42 0.42 0.44 0.46 0.49 0.51 0.53 0.54 0.57 0.59 0.60 0.61 0.63 0.66 0.68 0.68 0.67 0.67 0.71 0.75 0.79 0.82 0.86 0.89 0.86 0.85 0.92 0.99 1.04 1.06 1.09 1.11 1.08 1.03 1.02
0.18 0.22 0.26 0.23 0.22 0.21 0.19 0.18 0.19 0.18 0.15 0.17 0.19 0.18 0.17 0.18 0.17 0.18 0.19 0.18 0.16 0.15 0.21 0.18 0.10 0.10 0.13 0.13 0.13 0.14 0.16 0.15 0.17 0.17 0.16 0.17 0.20 0.23 0.23 0.24 0.27 0.29 0.31 0.30 0.31 0.33 0.34 0.35 0.37 0.39 0.40 0.40 0.41 0.43 0.46 0.50 0.52 0.53 0.55 0.58 0.60 0.61 0.62 0.62 0.66 0.68 0.66 0.65 0.64 0.64 0.65 0.65 0.69 0.70 0.71 0.70 0.75 0.81 0.85 0.90 1.00 1.03 1.05 1.05 1.04 1.05
0.20 0.24 0.23 0.21 0.22 0.21 0.20 0.19 0.21 0.21 0.17 0.15 0.16 0.21 0.20 0.20 0.19 0.19 0.18 0.17 0.13 0.11 0.20 0.23 0.11 0.08 0.12 0.11 0.11 0.13 0.13 0.13 0.15 0.15 0.15 0.17 0.19 0.21 0.22 0.25 0.26 0.27 0.29 0.32 0.33 0.34 0.34 0.35 0.36 0.37 0.38 0.40 0.42 0.44 0.49 0.52 0.54 0.56 0.58 0.59 0.61 0.61 0.62 0.64 0.66 0.67 0.66 0.64 0.65 0.65 0.63 0.65 0.65 0.64 0.69 0.77 0.84 0.86 0.88 0.90 0.94 1.00 1.06 1.09 1.07 1.04
0.23 0.22 0.22 0.22 0.21 0.21 0.20 0.17 0.21 0.21 0.18 0.15 0.22 0.22 0.22 0.20 0.19 0.19 0.18 0.18 0.15 0.20 0.22 0.22 0.19 0.13 0.10 0.09 0.12 0.14 0.13 0.13 0.13 0.14 0.15 0.16 0.18 0.20 0.23 0.25 0.26 0.29 0.31 0.32 0.34 0.35 0.36 0.36 0.37 0.37 0.40 0.42 0.44 0.48 0.52 0.53 0.56 0.57 0.58 0.60 0.61 0.63 0.64 0.65 0.67 0.66 0.67 0.64 0.65 0.66 0.67 0.69 0.69 0.71 0.72 0.76 0.80 0.86 0.88 0.90 0.96 1.01 1.04 1.07 1.06 1.02
0.22 0.20 0.20 0.19 0.19 0.18 0.17 0.20 0.23 0.23 0.19 0.18 0.24 0.25 0.22 0.22 0.21 0.21 0.20 0.18 0.19 0.16 0.13 0.18 0.22 0.12 0.11 0.10 0.13 0.14 0.11 0.12 0.12 0.12 0.13 0.15 0.19 0.21 0.23 0.26 0.29 0.31 0.33 0.35 0.36 0.37 0.39 0.40 0.42 0.44 0.45 0.48 0.50 0.52 0.53 0.55 0.57 0.60 0.62 0.63 0.64 0.64 0.64 0.66 0.67 0.65 0.67 0.68 0.68 0.68 0.70 0.69 0.74 0.77 0.77 0.80 0.83 0.85 0.88 0.90 0.94 0.98 1.01 1.03 1.02 0.99
0.23 0.24 0.25 0.24 0.20 0.17 0.21 0.23 0.24 0.24 0.19 0.25 0.27 0.28 0.27 0.26 0.24 0.23 0.19 0.19 0.18 0.14 0.11 0.15 0.18 0.10 0.08 0.11 0.10 0.13 0.12 0.10 0.10 0.12 0.14 0.16 0.19 0.21 0.24 0.27 0.30 0.32 0.34 0.37 0.38 0.40 0.42 0.44 0.46 0.47 0.48 0.49 0.51 0.54 0.56 0.57 0.59 0.61 0.63 0.63 0.64 0.64 0.66 0.67 0.67 0.67 0.67 0.69 0.70 0.70 0.72 0.71 0.71 0.74 0.75 0.79 0.81 0.85 0.88 0.88 0.88 0.90 0.93 0.96 0.95 0.93
0.28 0.33 0.34 0.27 0.23 0.24 0.24 0.26 0.26 0.25 0.26 0.31 0.30 0.26 0.24 0.24 0.23 0.24 0.22 0.20 0.16 0.10 0.11 0.16 0.17 0.13 0.07 0.10 0.09 0.09 0.10 0.10 0.12 0.13 0.15 0.17 0.19 0.22 0.26 0.28 0.30 0.31 0.34 0.36 0.38 0.41 0.43 0.45 0.46 0.47 0.46 0.48 0.51 0.54 0.55 0.56 0.59 0.61 0.62 0.63 0.62 0.65 0.67 0.68 0.67 0.67 0.68 0.70 0.71 0.71 0.72 0.72 0.71 0.73 0.74 0.75 0.78 0.82 0.83 0.82 0.82 0.85 0.91 0.94 0.92 0.90
0.27 0.28 0.26 0.28 0.31 0.29 0.29 0.24 0.29 0.30 0.30 0.29 0.25 0.22 0.21 0.19 0.22 0.20 0.19 0.21 0.12 0.08 0.15 0.17 0.17 0.17 0.07 0.10 0.11 0.13 0.14 0.14 0.14 0.13 0.14 0.16 0.19 0.23 0.26 0.28 0.30 0.32 0.34 0.36 0.38 0.39 0.41 0.42 0.44 0.46 0.46 0.48 0.50 0.52 0.54 0.56 0.59 0.60 0.61 0.62 0.62 0.64 0.66 0.67 0.67 0.67 0.68 0.69 0.71 0.73 0.73 0.72 0.72 0.74 0.73 0.75 0.76 0.77 0.76 0.77 0.79 0.86 0.90 0.91 0.90 0.88
0.21 0.22 0.26 0.28 0.33 0.28 0.25 0.22 0.25 0.28 0.29 0.26 0.24 0.21 0.14 0.13 0.12 0.11 0.14 0.10 0.10 0.08 0.16 0.19 0.19 0.14 0.10 0.10 0.13 0.13 0.15 0.15 0.17 0.17 0.17 0.18 0.21 0.22 0.26 0.29 0.30 0.32 0.34 0.36 0.37 0.37 0.38 0.39 0.41 0.43 0.46 0.48 0.50 0.51 0.53 0.55 0.57 0.59 0.60 0.62 0.61 0.62 0.65 0.66 0.68 0.66 0.67 0.68 0.69 0.71 0.73 0.73 0.74 0.75 0.76 0.78 0.78 0.77 0.77 0.78 0.79 0.81 0.84 0.87 0.86 0.84
0.18 0.24 0.25 0.26 0.28 0.30 0.27 0.17 0.20 0.19 0.24 0.23 0.19 0.16 0.13 0.10 0.10 0.08 0.10 0.12 0.11 0.13 0.18 0.17 0.22 0.12 0.11 0.13 0.14 0.12 0.13 0.18 0.20 0.22 0.22 0.23 0.23 0.22 0.24 0.28 0.30 0.31 0.33 0.34 0.35 0.36 0.38 0.40 0.42 0.45 0.46 0.47 0.49 0.51 0.53 0.55 0.57 0.59 0.60 0.62 0.62 0.63 0.65 0.67 0.68 0.67 0.67 0.68 0.69 0.72 0.73 0.74 0.75 0.73 0.76 0.78 0.78 0.76 0.77 0.80 0.81 0.84 0.87 0.88 0.87 0.84
0.11 0.12 0.17 0.21 0.18 0.28 0.25 0.21 0.19 0.17 0.20 0.20 0.24 0.18 0.13 0.11 0.09 0.07 0.08 0.07 0.08 0.10 0.15 0.20 0.15 0.10 0.09 0.09 0.17 0.20 0.19 0.19 0.21 0.21 0.22 0.24 0.25 0.23 0.26 0.29 0.30 0.31 0.32 0.34 0.35 0.36 0.39 0.41 0.43 0.44 0.46 0.47 0.49 0.50 0.53 0.55 0.56 0.58 0.59 0.61 0.61 0.62 0.65 0.66 0.67 0.67 0.67 0.67 0.69 0.70 0.73 0.75 0.74 0.73 0.74 0.75 0.75 0.74 0.76 0.80 0.83 0.88 0.91 0.90 0.87 0.83
0.14 0.13 0.20 0.25 0.25 0.27 0.21 0.26 0.26 0.23 0.22 0.24 0.26 0.25 0.16 0.12 0.14 0.09 0.11 0.10 0.10 0.11 0.12 0.14 0.11 0.12 0.11 0.15 0.16 0.18 0.18 0.17 0.19 0.19 0.20 0.20 0.22 0.24 0.25 0.27 0.28 0.31 0.32 0.34 0.35 0.37 0.40 0.42 0.44 0.45 0.46 0.47 0.49 0.50 0.53 0.54 0.56 0.57 0.59 0.61 0.62 0.62 0.64 0.65 0.66 0.66 0.66 0.67 0.68 0.69 0.70 0.71 0.72 0.73 0.73 0.73 0.74 0.76 0.80 0.83 0.85 0.87 0.90 0.89 0.85 0.83
0.16 0.14 0.21 0.25 0.28 0.26 0.26 0.28 0.26 0.26 0.14 0.22 0.24 0.17 0.16 0.23 0.17 0.14 0.14 0.16 0.15 0.12 0.09 0.14 0.11 0.11 0.13 0.13 0.13 0.13 0.13 0.13 0.14 0.15 0.17 0.19 0.22 0.24 0.24 0.26 0.29 0.31 0.33 0.35 0.37 0.38 0.40 0.42 0.44 0.45 0.46 0.47 0.49 0.50 0.51 0.53 0.56 0.57 0.58 0.60 0.61 0.62 0.64 0.65 0.66 0.65 0.65 0.66 0.66 0.67 0.68 0.70 0.69 0.70 0.70 0.70 0.71 0.73 0.78 0.81 0.83 0.84 0.85 0.86 0.87 0.88
0.15 0.16 0.24 0.24 0.21 0.29 0.33 0.32 0.31 0.29 0.27 0.24 0.17 0.20 0.26 0.28 0.24 0.16 0.11 0.14 0.12 0.09 0.09 0.12 0.09 0.08 0.08 0.06 0.12 0.13 0.13 0.14 0.15 0.16 0.17 0.17 0.19 0.20 0.22 0.25 0.29 0.32 0.34 0.37 0.39 0.41 0.42 0.43 0.44 0.46 0.47 0.49 0.50 0.51 0.52 0.54 0.57 0.58 0.59 0.60 0.60 0.61 0.62 0.64 0.65 0.64 0.65 0.65 0.66 0.66 0.67 0.68 0.68 0.69 0.70 0.71 0.72 0.76 0.77 0.76 0.77 0.79 0.84 0.87 0.89 0.86
0.24 0.16 0.22 0.28 0.28 0.31 0.36 0.33 0.29 0.32 0.34 0.24 0.21 0.32 0.19 0.17 0.14 0.19 0.15 0.10 0.09 0.09 0.09 0.10 0.10 0.10 0.10 0.08 0.10 0.10 0.11 0.12 0.14 0.15 0.16 0.16 0.18 0.19 0.22 0.26 0.29 0.33 0.35 0.37 0.40 0.42 0.43 0.44 0.45 0.46 0.48 0.50 0.52 0.53 0.54 0.56 0.58 0.59 0.60 0.61 0.61 0.61 0.62 0.64 0.65 0.65 0.65 0.65 0.66 0.66 0.66 0.66 0.67 0.68 0.69 0.71 0.73 0.74 0.73 0.74 0.77 0.82 0.87 0.87 0.85 0.82
0.26 0.18 0.20 0.30 0.29 0.33 0.34 0.31 0.19 0.23 0.32 0.33 0.33 0.27 0.30 0.23 0.18 0.15 0.15 0.14 0.12 0.09 0.09 0.08 0.09 0.08 0.10 0.10 0.10 0.10 0.12 0.13 0.14 0.15 0.16 0.18 0.20 0.22 0.24 0.26 0.28 0.29 0.31 0.36 0.41 0.43 0.45 0.46 0.47 0.48 0.49 0.50 0.51 0.52 0.53 0.55 0.57 0.58 0.59 0.61 0.62 0.63 0.64 0.64 0.64 0.64 0.63 0.64 0.65 0.65 0.67 0.67 0.68 0.67 0.68 0.70 0.71 0.72 0.74 0.77 0.79 0.83 0.84 0.83 0.80 0.77
0.25 0.26 0.17 0.27 0.34 0.33 0.24 0.28 0.21 0.23 0.22 0.25 0.25 0.23 0.24 0.23 0.26 0.24 0.23 0.15 0.12 0.10 0.09 0.08 0.08 0.08 0.09 0.12 0.11 0.11 0.13 0.14 0.16 0.17 0.19 0.21 0.22 0.26 0.28 0.28 0.28 0.30 0.33 0.37 0.40 0.43 0.45 0.47 0.49 0.50 0.51 0.51 0.51 0.52 0.53 0.53 0.54 0.57 0.59 0.60 0.62 0.62 0.63 0.64 0.64 0.64 0.63 0.63 0.64 0.64 0.64 0.65 0.66 0.66 0.70 0.70 0.72 0.72 0.75 0.78 0.81 0.84 0.85 0.83 0.77 0.78
0.27 0.26 0.20 0.25 0.26 0.24 0.23 0.30 0.29 0.29 0.27 0.24 0.23 0.21 0.20 0.19 0.18 0.15 0.13 0.21 0.18 0.14 0.11 0.10 0.08 0.09 0.10 0.14 0.13 0.14 0.16 0.18 0.19 0.20 0.21 0.22 0.26 0.26 0.27 0.29 0.32 0.34 0.37 0.39 0.40 0.41 0.44 0.46 0.49 0.50 0.50 0.51 0.51 0.52 0.52 0.54 0.54 0.56 0.57 0.60 0.61 0.62 0.63 0.64 0.65 0.65 0.64 0.63 0.63 0.63 0.63 0.64 0.65 0.67 0.70 0.71 0.71 0.72 0.75 0.77 0.80 0.83 0.82 0.79 0.77 0.80
0.35 0.31 0.26 0.23 0.22 0.23 0.27 0.33 0.36 0.36 0.34 0.31 0.29 0.23 0.24 0.23 0.21 0.17 0.13 0.16 0.20 0.19 0.20 0.17 0.13 0.10 0.12 0.16 0.16 0.17 0.19 0.21 0.23 0.23 0.22 0.24 0.26 0.27 0.28 0.32 0.36 0.39 0.40 0.40 0.42 0.44 0.45 0.47 0.48 0.49 0.50 0.51 0.51 0.52 0.52 0.53 0.54 0.55 0.57 0.59 0.61 0.61 0.62 0.65 0.66 0.67 0.67 0.65 0.64 0.63 0.65 0.64 0.64 0.67 0.68 0.69 0.71 0.71 0.74 0.77 0.78 0.79 0.78 0.77 0.76 0.80
0.41 0.32 0.27 0.26 0.28 0.32 0.34 0.37 0.38 0.38 0.36 0.31 0.31 0.29 0.28 0.24 0.24 0.22 0.21 0.22 0.18 0.20 0.18 0.17 0.15 0.13 0.13 0.17 0.18 0.20 0.23 0.24 0.25 0.25 0.23 0.27 0.27 0.27 0.29 0.33 0.37 0.39 0.41 0.42 0.42 0.45 0.47 0.48 0.50 0.50 0.51 0.52 0.53 0.53 0.53 0.54 0.55 0.56 0.58 0.59 0.60 0.60 0.62 0.64 0.66 0.67 0.67 0.67 0.66 0.65 0.64 0.63 0.64 0.66 0.68 0.68 0.69 0.70 0.72 0.75 0.77 0.79 0.77 0.75 0.77 0.78
0.35 0.37 0.32 0.26 0.25 0.26 0.28 0.31 0.31 0.36 0.34 0.29 0.26 0.28 0.30 0.30 0.29 0.29 0.27 0.28 0.20 0.20 0.18 0.17 0.13 0.13 0.13 0.19 0.20 0.22 0.23 0.23 0.24 0.25 0.27 0.25 0.26 0.28 0.32 0.36 0.39 0.43 0.42 0.40 0.42 0.44 0.47 0.48 0.50 0.51 0.52 0.53 0.53 0.53 0.54 0.54 0.55 0.56 0.58 0.59 0.60 0.61 0.63 0.64 0.66 0.66 0.66 0.67 0.66 0.66 0.65 0.64 0.65 0.65 0.66 0.68 0.69 0.70 0.72 0.74 0.75 0.74 0.73 0.73 0.75 0.78
0.39 0.36 0.33 0.26 0.23 0.19 0.17 0.17 0.17 0.20 0.24 0.29 0.30 0.28 0.29 0.27 0.26 0.26 0.22 0.23 0.19 0.20 0.20 0.18 0.16 0.17 0.16 0.18 0.19 0.21 0.22 0.22 0.24 0.26 0.28 0.28 0.28 0.30 0.34 0.38 0.39 0.41 0.42 0.42 0.42 0.44 0.47 0.49 0.51 0.52 0.51 0.52 0.53 0.53 0.54 0.55 0.56 0.57 0.58 0.60 0.62 0.62 0.63 0.65 0.66 0.66 0.66 0.66 0.66 0.66 0.66 0.66 0.65 0.65 0.65 0.67 0.69 0.71 0.72 0.73 0.73 0.73 0.73 0.75 0.77 0.78
0.41 0.42 0.38 0.34 0.30 0.26 0.25 0.25 0.30 0.32 0.31 0.26 0.26 0.27 0.27 0.30 0.31 0.29 0.27 0.24 0.20 0.19 0.19 0.20 0.19 0.17 0.15 0.15 0.17 0.19 0.20 0.21 0.23 0.26 0.26 0.28 0.30 0.33 0.35 0.36 0.39 0.41 0.41 0.42 0.43 0.46 0.49 0.50 0.50 0.50 0.51 0.53 0.54 0.54 0.55 0.56 0.57 0.58 0.58 0.60 0.62 0.63 0.64 0.65 0.66 0.66 0.66 0.66 0.66 0.65 0.66 0.66 0.66 0.66 0.65 0.67 0.70 0.71 0.72 0.73 0.74 0.74 0.74 0.74 0.76 0.76
0.45 0.39 0.40 0.39 0.37 0.35 0.35 0.33 0.36 0.34 0.30 0.30 0.28 0.28 0.31 0.31 0.32 0.31 0.27 0.23 0.25 0.22 0.19 0.22 0.21 0.19 0.17 0.17 0.18 0.18 0.20 0.22 0.24 0.26 0.28 0.30 0.32 0.34 0.35 0.38 0.38 0.40 0.44 0.45 0.45 0.46 0.48 0.50 0.51 0.50 0.51 0.53 0.54 0.56 0.57 0.58 0.58 0.58 0.59 0.59 0.61 0.63 0.64 0.65 0.66 0.66 0.66 0.66 0.66 0.66 0.66 0.67 0.68 0.68 0.68 0.69 0.70 0.71 0.72 0.73 0.72 0.73 0.75 0.75 0.74 0.72
0.45 0.39 0.42 0.42 0.39 0.40 0.40 0.38 0.39 0.39 0.36 0.34 0.33 0.32 0.31 0.33 0.34 0.32 0.31 0.30 0.29 0.25 0.20 0.20 0.21 0.22 0.22 0.21 0.20 0.20 0.21 0.23 0.24 0.27 0.30 0.35 0.38 0.38 0.38 0.38 0.40 0.42 0.43 0.42 0.46 0.49 0.50 0.50 0.51 0.52 0.53 0.54 0.55 0.55 0.56 0.58 0.59 0.60 0.60 0.61 0.62 0.63 0.64 0.66 0.66 0.65 0.65 0.66 0.65 0.66 0.67 0.68 0.68 0.69 0.69 0.70 0.70 0.70 0.70 0.71 0.71 0.71 0.72 0.74 0.74 0.73
0.49 0.43 0.44 0.45 0.42 0.43 0.42 0.41 0.40 0.39 0.38 0.37 0.37 0.37 0.38 0.37 0.36 0.35 0.32 0.32 0.31 0.28 0.29 0.27 0.26 0.25 0.27 0.25 0.23 0.23 0.26 0.28 0.30 0.32 0.35 0.36 0.37 0.39 0.40 0.41 0.41 0.42 0.42 0.44 0.48 0.52 0.52 0.51 0.52 0.53 0.54 0.55 0.56 0.56 0.56 0.58 0.58 0.59 0.60 0.61 0.62 0.63 0.65 0.66 0.66 0.66 0.65 0.65 0.65 0.66 0.67 0.67 0.67 0.68 0.68 0.69 0.69 0.70 0.70 0.69 0.70 0.69 0.70 0.71 0.72 0.72
0.50 0.43 0.47 0.47 0.44 0.42 0.42 0.43 0.43 0.42 0.41 0.38 0.39 0.39 0.39 0.39 0.39 0.38 0.36 0.34 0.34 0.34 0.34 0.33 0.30 0.27 0.29 0.31 0.31 0.32 0.33 0.35 0.35 0.35 0.35 0.37 0.38 0.39 0.40 0.41 0.42 0.43 0.44 0.47 0.50 0.52 0.52 0.53 0.54 0.54 0.55 0.55 0.56 0.56 0.57 0.58 0.59 0.60 0.61 0.61 0.62 0.63 0.65 0.66 0.65 0.65 0.66 0.66 0.67 0.67 0.67 0.67 0.67 0.67 0.67 0.68 0.69 0.69 0.69 0.69 0.69 0.68 0.68 0.69 0.69 0.69
0.53 0.45 0.50 0.47 0.40 0.39 0.41 0.41 0.41 0.44 0.44 0.42 0.39 0.39 0.38 0.36 0.33 0.34 0.34 0.37 0.37 0.35 0.36 0.36 0.34 0.31 0.30 0.35 0.38 0.36 0.36 0.37 0.36 0.37 0.38 0.38 0.39 0.40 0.41 0.43 0.44 0.44 0.46 0.46 0.50 0.51 0.53 0.53 0.54 0.54 0.54 0.56 0.57 0.58 0.58 0.59 0.60 0.60 0.60 0.61 0.62 0.64 0.65 0.65 0.65 0.65 0.66 0.67 0.68 0.68 0.67 0.67 0.66 0.66 0.66 0.67 0.68 0.68 0.68 0.69 0.69 0.68 0.67 0.66 0.66 0.67
0.49 0.47 0.44 0.43 0.38 0.36 0.38 0.43 0.43 0.44 0.43 0.38 0.37 0.36 0.36 0.36 0.38 0.40 0.42 0.42 0.40 0.38 0.35 0.32 0.31 0.34 0.35 0.37 0.36 0.35 0.37 0.39 0.39 0.40 0.41 0.41 0.42 0.43 0.45 0.45 0.45 0.45 0.45 0.46 0.48 0.50 0.52 0.53 0.54 0.55 0.56 0.58 0.59 0.59 0.60 0.61 0.60 0.59 0.61 0.61 0.63 0.64 0.64 0.64 0.64 0.65 0.65 0.67 0.67 0.67 0.67 0.66 0.66 0.66 0.66 0.67 0.68 0.68 0.68 0.68 0.69 0.68 0.66 0.65 0.66 0.67
0.47 0.46 0.43 0.47 0.36 0.36 0.38 0.42 0.46 0.39 0.28 0.29 0.36 0.38 0.40 0.38 0.39 0.39 0.38 0.38 0.39 0.42 0.39 0.40 0.39 0.40 0.39 0.37 0.35 0.35 0.37 0.40 0.42 0.44 0.46 0.45 0.45 0.46 0.47 0.46 0.46 0.47 0.47 0.48 0.50 0.52 0.52 0.54 0.55 0.56 0.58 0.59 0.60 0.61 0.62 0.62 0.61 0.61 0.62 0.62 0.63 0.63 0.63 0.63 0.64 0.64 0.65 0.66 0.66 0.67 0.66 0.66 0.66 0.65 0.66 0.67 0.67 0.68 0.67 0.68 0.69 0.69 0.68 0.67 0.66 0.66
0.43 0.44 0.42 0.45 0.38 0.34 0.38 0.40 0.35 0.27 0.28 0.35 0.42 0.46 0.46 0.46 0.45 0.41 0.39 0.40 0.41 0.43 0.44 0.43 0.42 0.40 0.38 0.38 0.39 0.39 0.42 0.45 0.47 0.46 0.46 0.48 0.48 0.47 0.47 0.47 0.47 0.48 0.49 0.49 0.50 0.52 0.53 0.54 0.56 0.57 0.59 0.59 0.60 0.62 0.62 0.61 0.61 0.62 0.62 0.62 0.61 0.62 0.62 0.62 0.62 0.62 0.63 0.64 0.65 0.65 0.65 0.65 0.64 0.64 0.65 0.65 0.66 0.66 0.67 0.68 0.68 0.68 0.67 0.67 0.66 0.66
0.40 0.39 0.40 0.40 0.41 0.40 0.36 0.33 0.23 0.24 0.35 0.41 0.43 0.45 0.48 0.47 0.44 0.43 0.40 0.41 0.42 0.43 0.45 0.43 0.41 0.40 0.39 0.39 0.41 0.45 0.47 0.48 0.48 0.48 0.46 0.48 0.50 0.49 0.48 0.47 0.48 0.50 0.49 0.49 0.51 0.52 0.54 0.55 0.57 0.58 0.59 0.61 0.61 0.61 0.61 0.60 0.62 0.61 0.60 0.61 0.60 0.60 0.61 0.61 0.61 0.61 0.62 0.62 0.63 0.63 0.63 0.63 0.63 0.63 0.63 0.64 0.64 0.64 0.65 0.66 0.67 0.67 0.67 0.66 0.65 0.66
0.43 0.42 0.40 0.34 0.40 0.29 0.31 0.31 0.30 0.37 0.36 0.38 0.36 0.36 0.38 0.36 0.38 0.38 0.34 0.36 0.41 0.44 0.44 0.42 0.39 0.39 0.39 0.41 0.45 0.48 0.50 0.50 0.46 0.42 0.43 0.46 0.49 0.52 0.51 0.50 0.50 0.51 0.51 0.53 0.54 0.55 0.58 0.59 0.59 0.60 0.61 0.61 0.61 0.60 0.60 0.61 0.60 0.59 0.58 0.58 0.59 0.59 0.59 0.60 0.60 0.60 0.61 0.61 0.62 0.62 0.62 0.62 0.62 0.62 0.62 0.63 0.63 0.63 0.64 0.65 0.66 0.67 0.66 0.64 0.64 0.64
0.45 0.37 0.39 0.33 0.31 0.36 0.29 0.27 0.29 0.28 0.24 0.26 0.31 0.33 0.39 0.45 0.46 0.48 0.44 0.38 0.41 0.43 0.45 0.42 0.40 0.39 0.41 0.44 0.47 0.49 0.52 0.47 0.40 0.35 0.36 0.47 0.51 0.51 0.52 0.52 0.53 0.54 0.54 0.55 0.57 0.57 0.58 0.59 0.60 0.61 0.61 0.60 0.60 0.60 0.60 0.60 0.59 0.58 0.56 0.56 0.57 0.57 0.57 0.57 0.58 0.59 0.60 0.60 0.61 0.61 0.62 0.62 0.62 0.62 0.62 0.62 0.61 0.62 0.62 0.63 0.64 0.64 0.64 0.63 0.62 0.62
0.44 0.44 0.40 0.34 0.29 0.31 0.28 0.24 0.23 0.21 0.24 0.30 0.28 0.31 0.37 0.44 0.47 0.51 0.45 0.37 0.39 0.38 0.42 0.44 0.43 0.42 0.44 0.46 0.47 0.51 0.47 0.41 0.36 0.34 0.38 0.47 0.49 0.50 0.50 0.52 0.53 0.54 0.55 0.56 0.56 0.56 0.57 0.59 0.60 0.61 0.61 0.59 0.58 0.59 0.59 0.59 0.58 0.56 0.55 0.55 0.55 0.56 0.55 0.55 0.56 0.57 0.57 0.58 0.60 0.60 0.61 0.61 0.61 0.60 0.60 0.59 0.59 0.60 0.60 0.60 0.60 0.61 0.61 0.60 0.60 0.60
0.39 0.40 0.39 0.33 0.29 0.30 0.27 0.24 0.22 0.27 0.24 0.28 0.30 0.32 0.38 0.42 0.47 0.45 0.31 0.31 0.36 0.34 0.41 0.43 0.42 0.44 0.46 0.47 0.49 0.48 0.43 0.38 0.35 0.36 0.44 0.48 0.49 0.51 0.52 0.52 0.53 0.54 0.55 0.56 0.57 0.58 0.59 0.60 0.59 0.58 0.57 0.56 0.57 0.58 0.58 0.58 0.57 0.55 0.55 0.55 0.55 0.54 0.54 0.55 0.56 0.57 0.58 0.58 0.59 0.59 0.59 0.59 0.59 0.58 0.58 0.57 0.58 0.58 0.58 0.59 0.58 0.58 0.57 0.58 0.58 0.58
0.33 0.35 0.36 0.28 0.28 0.28 0.28 0.27 0.29 0.30 0.35 0.33 0.29 0.32 0.38 0.44 0.42 0.31 0.26 0.29 0.33 0.36 0.42 0.43 0.44 0.45 0.44 0.45 0.47 0.44 0.45 0.45 0.44 0.45 0.49 0.51 0.51 0.52 0.54 0.55 0.56 0.57 0.56 0.57 0.57 0.59 0.58 0.57 0.57 0.56 0.56 0.57 0.57 0.58 0.58 0.57 0.56 0.54 0.54 0.54 0.54 0.53 0.54 0.56 0.57 0.57 0.57 0.58 0.58 0.58 0.58 0.58 0.57 0.56 0.56 0.57 0.56 0.57 0.57 0.57 0.57 0.56 0.56 0.56 0.57 0.57
0.33 0.34 0.35 0.37 0.32 0.29 0.29 0.26 0.25 0.29 0.35 0.37 0.36 0.35 0.40 0.36 0.27 0.24 0.31 0.37 0.38 0.38 0.40 0.41 0.41 0.44 0.46 0.45 0.46 0.46 0.47 0.49 0.51 0.51 0.50 0.50 0.51 0.53 0.55 0.56 0.57 0.57 0.58 0.59 0.59 0.58 0.57 0.56 0.56 0.56 0.56 0.57 0.58 0.58 0.57 0.56 0.55 0.54 0.53 0.53 0.52 0.53 0.55 0.55 0.55 0.55 0.55 0.55 0.55 0.55 0.55 0.55 0.55 0.55 0.55 0.55 0.55 0.54 0.54 0.55 0.55 0.55 0.55 0.55 0.55 0.55
0.31 0.29 0.28 0.30 0.34 0.36 0.34 0.30 0.28 0.23 0.34 0.35 0.34 0.37 0.44 0.32 0.31 0.34 0.34 0.38 0.42 0.41 0.41 0.41 0.43 0.44 0.47 0.46 0.49 0.50 0.51 0.51 0.52 0.53 0.52 0.53 0.53 0.53 0.54 0.56 0.56 0.57 0.57 0.57 0.57 0.58 0.57 0.56 0.56 0.56 0.57 0.58 0.58 0.58 0.57 0.56 0.54 0.53 0.53 0.52 0.53 0.54 0.54 0.54 0.54 0.54 0.54 0.54 0.54 0.54 0.54 0.54 0.54 0.54 0.54 0.54 0.54 0.53 0.53 0.53 0.53 0.53 0.52 0.52 0.52 0.52
0.39 0.31 0.31 0.35 0.38 0.29 0.28 0.26 0.27 0.35 0.42 0.51 0.46 0.35 0.41 0.43 0.42 0.45 0.46 0.40 0.42 0.42 0.41 0.41 0.44 0.47 0.49 0.49 0.50 0.52 0.53 0.53 0.54 0.54 0.55 0.55 0.54 0.55 0.55 0.56 0.57 0.59 0.59 0.59 0.59 0.59 0.59 0.57 0.57 0.57 0.57 0.58 0.58 0.58 0.57 0.56 0.54 0.53 0.53 0.52 0.55 0.55 0.55 0.55 0.55 0.56 0.55 0.55 0.55 0.55 0.55 0.55 0.55 0.55 0.55 0.55 0.54 0.54 0.53 0.53 0.53 0.52 0.52 0.51 0.51 0.50
0.34 0.30 0.32 0.27 0.38 0.37 0.33 0.38 0.44 0.47 0.47 0.49 0.49 0.47 0.50 0.55 0.55 0.53 0.51 0.48 0.45 0.46 0.48 0.46 0.45 0.48 0.52 0.53 0.53 0.53 0.53 0.54 0.54 0.56 0.55 0.56 0.56 0.55 0.54 0.55 0.57 0.58 0.59 0.59 0.60 0.60 0.60 0.59 0.58 0.58 0.58 0.58 0.58 0.58 0.57 0.57 0.55 0.54 0.53 0.55 0.57 0.57 0.57 0.57 0.57 0.56 0.55 0.55 0.54 0.54 0.54 0.54 0.54 0.54 0.54 0.54 0.54 0.52 0.51 0.51 0.50 0.50 0.50 0.51 0.51 0.51
0.35 0.38 0.40 0.37 0.34 0.42 0.45 0.43 0.47 0.50 0.51 0.51 0.55 0.54 0.52 0.54 0.57 0.55 0.51 0.49 0.51 0.50 0.51 0.50 0.50 0.51 0.53 0.56 0.54 0.53 0.53 0.54 0.54 0.55 0.56 0.57 0.57 0.58 0.58 0.58 0.59 0.59 0.60 0.60 0.60 0.60 0.60 0.60 0.60 0.59 0.58 0.59 0.59 0.58 0.58 0.58 0.57 0.55 0.56 0.59 0.60 0.60 0.60 0.59 0.58 0.56 0.55 0.55 0.54 0.54 0.54 0.53 0.53 0.53 0.53 0.53 0.54 0.53 0.53 0.52 0.52 0.52 0.52 0.52 0.52 0.51
0.28 0.31 0.33 0.29 0.34 0.31 0.27 0.36 0.39 0.41 0.44 0.46 0.47 0.51 0.53 0.57 0.58 0.59 0.55 0.53 0.51 0.51 0.54 0.57 0.55 0.53 0.54 0.54 0.54 0.53 0.54 0.55 0.54 0.55 0.56 0.57 0.58 0.59 0.60 0.60 0.61 0.61 0.61 0.60 0.61 0.61 0.60 0.60 0.60 0.60 0.59 0.59 0.60 0.60 0.60 0.59 0.60 0.60 0.61 0.61 0.62 0.62 0.61 0.59 0.58 0.57 0.56 0.56 0.55 0.55 0.55 0.54 0.54 0.55 0.55 0.55 0.55 0.55 0.54 0.53 0.53 0.51 0.50 0.49 0.47 0.47
0.18 0.30 0.26 0.28 0.29 0.28 0.28 0.32 0.36 0.40 0.42 0.44 0.44 0.43 0.44 0.49 0.56 0.59 0.59 0.58 0.56 0.55 0.55 0.58 0.58 0.56 0.56 0.54 0.55 0.55 0.54 0.55 0.54 0.55 0.56 0.57 0.58 0.59 0.60 0.61 0.61 0.61 0.62 0.62 0.62 0.62 0.61 0.60 0.60 0.60 0.60 0.60 0.61 0.61 0.61 0.61 0.62 0.62 0.63 0.62 0.62 0.61 0.59 0.58 0.58 0.57 0.56 0.55 0.55 0.54 0.54 0.53 0.53 0.52 0.51 0.51 0.50 0.49 0.48 0.47 0.47 0.46 0.45 0.45 0.45 0.44
0.31 0.32 0.22 0.28 0.25 0.29 0.35 0.36 0.35 0.36 0.38 0.39 0.41 0.43 0.45 0.46 0.49 0.55 0.58 0.58 0.57 0.55 0.54 0.54 0.56 0.56 0.56 0.55 0.56 0.56 0.55 0.55 0.56 0.55 0.56 0.57 0.58 0.58 0.59 0.60 0.60 0.61 0.61 0.60 0.61 0.61 0.60 0.60 0.59 0.59 0.59 0.60 0.62 0.63 0.63 0.63 0.64 0.64 0.63 0.62 0.61 0.60 0.58 0.56 0.56 0.55 0.54 0.53 0.52 0.50 0.50 0.48 0.47 0.46 0.44 0.43 0.43 0.43 0.43 0.43 0.42 0.42 0.42 0.42 0.40 0.38
0.30 0.25 0.30 0.28 0.23 0.22 0.23 0.25 0.32 0.29 0.28 0.32 0.37 0.42 0.44 0.47 0.50 0.52 0.56 0.56 0.56 0.55 0.56 0.55 0.56 0.57 0.57 0.57 0.57 0.57 0.56 0.55 0.56 0.57 0.57 0.57 0.58 0.58 0.59 0.59 0.59 0.59 0.59 0.60 0.61 0.61 0.61 0.61 0.61 0.61 0.62 0.63 0.64 0.64 0.63 0.62 0.62 0.61 0.61 0.61 0.59 0.58 0.56 0.54 0.52 0.51 0.49 0.47 0.46 0.44 0.43 0.42 0.41 0.41 0.40 0.40 0.39 0.39 0.39 0.40 0.40 0.38 0.36 0.35 0.35 0.33
0.26 0.26 0.26 0.23 0.23 0.20 0.25 0.30 0.34 0.36 0.35 0.34 0.36 0.42 0.45 0.47 0.50 0.52 0.54 0.56 0.57 0.59 0.58 0.57 0.56 0.57 0.58 0.59 0.61 0.60 0.57 0.56 0.58 0.59 0.58 0.57 0.58 0.59 0.59 0.59 0.58 0.58 0.59 0.60 0.59 0.59 0.59 0.60 0.62 0.62 0.63 0.63 0.63 0.62 0.62 0.61 0.60 0.59 0.58 0.58 0.57 0.54 0.51 0.49 0.46 0.45 0.43 0.42 0.40 0.40 0.39 0.39 0.39 0.39 0.39 0.39 0.37 0.36 0.34 0.33 0.33 0.33 0.32 0.31 0.29 0.28
Wind_Speed
17 18 18 18 17 17 18 16 15 14 13 13 13 14 14 15 15 14 13 12 12 14 15 15 16 17 17 17 17 17 16 16 17 18 18 19 20 20 20 20 20 21 20 20 20 21 21 21 21 21 22 22 22 23 24 24 25 25 25 25 25 25 25 25 24 24 24 24 24 24 25 25 25 24 24 24 24 25 25 25 26 25 25 25 25 25
18 19 19 17 16 16 16 15 14 14 14 14 15 15 15 15 15 13 13 13 13 14 15 14 16 18 17 17 17 17 17 17 18 19 19 20 20 20 21 21 22 21 21 21 21 22 22 22 22 22 23 23 24 24 25 25 25 26 26 26 26 26 26 26 25 25 25 25 25 25 25 25 25 24 25 25 25 25 25 26 26 25 25 25 26 26
19 20 18 15 15 15 15 16 16 16 15 15 16 16 16 15 15 14 13 13 13 15 15 14 17 19 18 18 19 19 19 19 20 20 20 20 20 21 21 21 21 22 22 22 22 22 22 23 24 24 24 24 25 25 25 26 26 26 26 26 27 27 27 27 26 26 26 26 26 26 26 26 25 25 25 25 25 25 25 26 26 26 26 26 26 27
20 19 17 16 17 17 16 17 17 16 17 17 17 17 16 15 15 15 14 14 14 15 16 16 18 20 19 19 19 19 19 20 20 21 21 21 21 22 22 22 22 23 23 23 23 22 22 23 24 24 24 25 25 25 26 26 26 26 27 27 27 27 28 27 27 27 27 26 26 26 26 26 25 25 25 25 25 26 26 26 27 27 26 27 27 27
20 18 17 17 18 18 17 18 19 18 18 18 18 18 17 15 16 16 15 15 16 16 16 18 19 19 17 17 17 16 16 18 19 19 20 21 21 21 21 22 22 23 23 23 23 23 22 22 23 23 23 24 24 25 26 27 27 26 27 27 27 27 28 28 28 28 27 27 27 27 26 26 26 26 26 27 27 27 27 27 28 28 28 28 28 28
21 19 19 18 17 18 18 19 20 20 19 18 19 20 19 17 16 16 15 16 17 16 16 17 18 18 16 17 18 16 16 18 17 17 20 21 20 20 21 22 22 22 22 22 23 23 22 22 22 22 22 23 23 24 25 25 26 26 26 26 27 27 27 28 28 28 28 28 28 28 28 27 27 27 27 28 28 28 28 28 28 29 29 29 28 29
22 21 20 19 19 18 19 20 20 20 19 19 18 19 19 18 17 17 16 17 17 16 16 17 17 18 19 20 18 16 17 19 17 18 20 20 20 20 21 22 22 22 22 21 22 21 21 21 21 21 21 22 22 22 22 23 24 25 25 25 26 26 27 27 28 28 29 29 29 29 29 29 29 28 28 28 28 29 29 29 29 29 29 29 29 29
22 22 21 21 20 20 21 20 19 20 20 19 18 18 18 18 18 18 17 18 18 18 19 19 18 20 21 20 16 14 17 18 17 18 19 19 19 20 20 20 20 20 20 19 19 19 19 20 20 20 20 21 22 22 21 22 22 23 24 25 25 26 26 27 27 28 28 29 29 30 30 30 30 29 29 29 29 29 29 29 29 30 29 29 30 30
22 23 23 22 22 23 22 20 20 22 21 20 19 18 18 18 18 17 18 19 19 19 20 18 17 19 22 20 15 14 17 18 18 18 18 17 17 18 18 17 17 17 17 18 18 17 18 18 18 18 19 20 21 21 21 21 22 23 23 24 25 26 26 27 27 28 29 29 29 30 30 30 30 30 29 29 29 29 29 29 30 30 30 30 31 31
22 23 24 23 24 24 22 20 21 22 21 20 20 18 17 17 17 17 19 19 19 20 20 18 17 19 22 22 18 16 17 18 17 17 17 16 16 17 16 16 16 16 16 17 17 17 17 17 17 18 19 19 20 20 21 22 22 22 23 24 25 25 26 26 27 28 29 29 30 30 30 30 30 30 30 30 29 29 29 30 30 31 31 31 31 31
24 23 23 24 24 22 21 20 21 22 21 21 21 19 17 18 18 19 19 19 20 21 19 18 18 19 20 18 15 15 15 15 16 15 16 16 16 16 15 15 15 15 16 16 16 16 17 18 18 19 20 20 20 21 21 22 22 22 23 23 24 24 25 25 27 27 28 29 29 30 30 30 30 30 30 30 29 30 30 30 30 30 30 30 30 30
26 25 25 25 24 22 21 20 20 21 22 22 21 20 19 19 19 20 20 19 20 21 18 18 18 19 21 18 14 16 17 17 17 18 17 17 16 15 14 15 16 16 16 17 17 17 18 19 20 21 21 20 20 20 21 21 22 22 23 23 24 24 24 25 26 27 28 28 28 29 29 30 30 30 30 30 30 30 30 30 30 29 29 29 30 30
27 27 26 25 25 26 25 22 21 23 24 23 22 21 21 20 19 21 20 19 22 21 19 20 19 21 26 25 22 23 23 22 21 21 20 19 18 18 17 17 17 17 18 18 19 20 21 21 21 21 21 20 20 20 20 21 21 22 23 23 24 25 25 25 26 26 27 27 28 28 29 29 29 29 30 30 30 31 30 30 30 30 30 30 30 30
27 27 27 28 28 29 29 26 25 25 25 25 24 23 22 20 20 22 21 20 22 22 21 21 21 23 27 26 25 25 24 21 20 21 21 21 22 23 21 20 20 21 21 21 22 22 22 22 21 21 21 21 21 21 21 21 21 22 22 23 24 24 24 25 25 26 26 27 27 28 28 28 28 29 30 30 31 31 30 31 30 30 30 30 30 31
28 27 28 29 28 29 31 30 27 26 26 27 26 25 25 24 23 23 21 21 22 20 20 21 22 24 24 22 21 22 22 21 21 22 22 23 25 26 25 24 24 24 24 23 23 23 22 22 21 21 21 21 21 21 21 21 22 22 22 23 24 24 24 25 25 25 26 27 27 28 29 29 29 29 30 30 30 30 30 30 31 30 30 30 30 30
29 29 27 27 26 28 29 28 27 26 27 27 26 26 28 28 26 24 23 22 21 21 22 23 25 27 26 26 27 26 26 25 25 24 24 25 26 26 25 25 25 26 25 24 23 23 23 22 22 21 21 21 21 22 22 22 22 22 22 23 24 24 25 25 26 26 26 27 27 28 28 29 29 29 30 30 30 30 30 30 30 30 30 30 30 31
28 28 27 26 27 27 27 26 26 27 27 27 27 29 29 27 26 25 24 23 22 25 26 25 29 31 30 31 31 29 30 28 25 24 23 23 24 23 24 25 25 25 25 24 24 23 23 22 22 21 21 21 21 22 23 23 23 23 23 24 24 25 25 26 27 27 27 27 27 27 28 28 29 29 30 30 29 29 29 30 30 30 30 31 31 31
28 27 27 27 27 27 27 26 26 27 27 27 29 29 28 26 26 26 25 23 24 27 27 26 31 32 29 29 26 24 26 27 25 24 25 25 25 25 25 24 24 25 24 24 24 24 24 23 22 21 21 21 22 22 23 23 24 24 24 25 25 25 26 27 27 27 27 28 28 28 28 28 29 29 30 30 29 29 30 30 30 30 31 30 30 31
29 28 28 27 27 26 26 27 28 28 28 29 29 28 26 26 26 26 26 25 25 26 26 27 30 31 31 31 28 26 26 27 27 27 27 27 27 27 26 23 24 26 26 26 26 24 24 24 23 22 22 22 22 22 23 23 24 25 25 25 26 26 27 27 27 28 28 28 28 28 28 29 29 29 30 30 30 30 30 30 30 31 30 30 31 31
30 30 28 27 28 26 27 30 31 30 29 29 29 28 28 28 27 27 28 27 27 27 27 28 28 30 33 32 30 30 29 28 29 27 26 26 26 26 26 25 26 27 27 27 26 25 24 24 23 23 23 23 24 24 24 24 25 26 26 26 27 27 27 27 28 28 28 28 29 29 29 29 29 30 30 30 30 31 31 30 31 31 31 31 32 32
30 31 30 28 28 29 30 32 32 32 30 30 31 30 30 29 27 28 30 29 28 28 28 29 29 32 32 29 28 31 30 28 28 27 25 25 26 26 26 27 27 26 25 25 26 26 26 25 24 24 24 25 25 26 26 26 26 27 27 27 27 28 28 28 28 29 29 29 29 29 29 30 30 30 30 30 31 31 31 31 32 31 31 32 32 32
31 32 31 30 30 32 32 31 31 32 31 31 32 33 33 32 30 30 30 31 31 30 28 28 30 34 32 27 28 31 29 29 28 27 27 27 26 26 27 28 27 25 25 25 26 27 27 26 25 25 25 26 27 28 28 27 28 28 29 28 28 29 29 29 29 29 29 29 30 30 30 30 30 30 31 31 31 31 31 32 32 32 32 33 32 32
30 31 32 33 33 33 32 30 30 31 31 32 33 34 34 35 35 33 30 29 30 31 30 29 31 35 34 28 29 31 30 30 29 28 29 28 28 28 29 29 27 27 26 26 27 28 27 27 26 26 27 28 29 29 29 29 29 29 30 30 29 29 29 29 30 30 30 30 31 31 31 31 31 31 31 31 31 31 32 32 33 33 33 33 33 33
28 31 33 33 33 32 32 32 32 31 31 34 35 35 34 36 36 35 31 30 30 31 31 30 31 36 34 28 29 32 32 32 32 31 31 30 30 31 31 30 29 28 28 28 28 29 28 28 28 28 28 30 31 31 30 30 30 31 31 31 30 31 30 30 30 31 31 31 32 32 31 31 31 32 32 32 32 32 32 33 33 34 34 34 34 34
29 31 32 31 31 31 32 32 33 34 34 36 36 34 35 36 35 33 33 33 32 33 34 33 33 37 35 29 29 33 34 34 34 33 32 33 33 33 32 31 30 30 30 30 30 30 30 29 29 30 31 32 32 32 31 31 31 31 32 32 31 31 31 31 31 32 32 32 32 33 33 33 33 33 33 33 33 33 33 33 34 34 34 34 34 34
30 31 32 32 32 32 33 33 34 35 35 35 36 35 36 37 36 34 35 34 34 35 37 36 36 38 38 33 32 34 34 35 36 36 35 35 36 35 34 33 32 32 33 32 31 31 32 31 31 32 33 33 33 32 32 32 32 32 32 32 32 32 32 32 32 33 33 33 33 34 34 34 34 34 34 34 34 34 33 33 33 34 34 34 35 35
30 31 33 35 36 37 38 37 34 33 33 35 37 38 38 38 38 37 36 36 37 38 39 40 40 42 44 40 37 36 35 35 37 37 37 38 38 37 36 35 35 35 35 34 33 33 33 33 33 34 35 34 34 34 34 33 33 33 33 33 33 33 33 33 33 34 34 34 34 34 34 35 35 35 34 34 34 34 34 34 33 34 34 34 35 35
29 32 34 36 38 39 40 40 35 33 36 38 39 39 38 38 38 39 39 40 39 38 40 42 42 45 46 43 41 40 37 35 37 38 39 40 40 39 38 37 37 37 37 37 36 35 35 35 36 36 36 35 35 35 35 35 34 34 35 35 35 34 34 34 34 35 35 35 35 35 35 35 35 35 35 35 35 34 34 34 34 34 34 34 35 36
29 33 34 35 37 38 39 40 37 36 38 39 39 40 39 38 39 41 43 44 42 41 43 44 45 46 45 44 44 42 39 37 39 39 40 40 40 40 39 39 38 39 39 39 38 37 37 38 38 37 37 36 37 36 36 36 36 35 36 36 36 35 35 35 35 35 34 35 35 35 35 35 35 35 35 35 35 35 35 35 34 34 34 35 35 36
31 33 35 35 36 38 39 40 38 37 38 39 39 39 39 39 41 43 44 45 46 47 47 46 47 48 46 44 45 43 40 40 41 40 40 40 41 42 41 41 41 41 41 41 39 39 39 40 40 39 38 38 38 37 37 37 37 37 37 37 37 36 36 36 35 35 34 34 35 35 35 34 34 35 35 35 35 35 35 35 35 34 34 35 35 36
32 33 34 34 35 37 39 39 39 38 37 38 39 38 38 39 41 43 45 45 46 47 46 46 48 49 47 44 43 43 42 41 42 42 42 43 43 43 44 44 44 43 41 40 40 40 41 41 41 40 39 39 39 39 39 39 38 37 37 38 38 37 36 36 36 35 34 34 34 34 34 34 34 34 34 35 35 35 35 35 35 35 35 35 35 35
33 32 32 32 33 36 38 38 39 37 35 37 40 40 41 41 41 42 42 41 42 44 44 45 46 47 45 40 40 44 43 41 42 43 43 44 44 44 45 45 44 42 41 41 41 42 43 42 41 40 41 41 41 40 40 40 39 38 38 38 38 37 36 36 36 36 35 34 34 33 33 33 33 34 34 34 35 35 35 35 35 35 35 35 35 35
35 34 34 34 34 36 38 37 36 35 34 36 41 42 43 43 41 40 40 41 43 43 43 43 44 44 42 40 41 43 42 40 42 42 42 44 44 44 45 44 43 43 43 43 44 44 44 42 41 41 42 42 41 41 41 40 40 39 38 38 37 37 36 36 37 36 36 35 34 34 34 33 33 33 34 34 34 34 35 35 35 35 35 35 35 35
36 36 36 36 34 36 38 36 32 33 34 35 36 38 40 41 41 42 43 44 44 43 42 43 43 42 42 41 41 41 40 40 42 42 43 44 44 44 44 44 44 44 44 45 46 45 44 42 42 43 43 42 41 41 41 40 40 39 38 37 36 36 36 36 36 36 35 35 35 34 34 34 34 34 34 34 34 34 35 35 35 34 34 35 35 35
38 38 38 37 36 37 38 35 33 34 36 35 33 33 35 37 39 42 45 45 44 42 42 43 44 43 42 42 41 40 40 40 41 43 44 45 44 44 44 44 44 44 44 44 44 43 42 42 42 43 42 41 41 41 40 39 38 38 37 36 36 36 36 36 36 36 35 35 35 35 35 34 34 34 34 34 34 34 34 35 35 34 34 34 35 35
42 41 40 39 38 37 37 37 36 37 37 36 34 32 32 34 36 38 41 42 41 39 40 41 43 43 42 41 41 40 39 38 39 42 44 43 42 42 42 42 43 43 42 41 40 40 41 41 42 41 41 40 40 40 39 38 37 37 36 36 35 35 35 35 35 35 35 35 35 34 34 34 34 34 34 33 34 34 34 34 34 34 34 34 35 35
45 44 42 42 41 39 39 40 41 41 41 41 41 38 34 35 36 36 38 40 38 36 37 39 41 41 40 39 39 38 36 35 37 40 42 40 39 39 40 40 41 41 40 39 39 40 40 40 40 40 40 39 38 38 37 36 35 35 35 34 34 34 34 34 34 34 34 34 34 33 33 33 33 33 33 33 33 33 33 33 34 34 34 34 34 35
47 46 44 44 43 42 43 42 41 41 42 44 46 44 40 39 38 36 37 40 38 37 37 38 39 39 37 37 37 33 31 33 35 37 38 35 35 38 40 40 40 39 39 39 39 39 39 39 39 39 38 37 36 35 35 34 34 34 33 33 33 33 33 33 33 33 33 33 33 33 32 32 32 32 32 32 32 32 32 33 33 33 34 34 35 35
48 46 46 46 44 44 45 43 41 42 43 44 47 44 40 40 38 35 38 40 40 38 37 36 38 38 36 36 34 29 29 32 35 36 35 33 33 36 38 38 37 37 37 38 37 37 38 38 37 36 36 35 35 34 34 34 33 33 33 33 33 33 33 33 33 33 33 32 32 32 32 32 32 32 32 32 32 32 32 32 33 33 34 34 35 35
45 45 46 47 46 46 47 45 44 45 45 46 47 44 41 40 38 36 38 40 39 38 35 35 37 36 35 35 32 28 30 34 35 36 34 32 31 32 33 34 34 34 35 36 36 36 36 35 34 34 34 34 34 34 34 34 33 33 33 33 33 33 33 33 32 32 32 32 31 31 31 31 31 31 31 31 31 31 32 32 32 33 33 34 34 35
41 43 45 46 46 47 48 46 45 46 45 46 47 44 42 41 40 41 42 42 41 40 37 37 39 38 37 37 34 33 36 38 39 39 35 31 31 30 30 31 31 32 33 34 34 34 33 32 33 33 33 34 34 34 34 34 33 33 33 32 32 32 32 32 32 31 31 31 31 31 30 30 30 30 30 30 30 30 30 31 31 32 33 33 33 34
37 38 41 43 44 45 45 45 46 45 44 45 46 44 42 43 44 46 48 46 45 44 41 41 42 41 41 41 39 39 41 42 41 41 38 35 34 33 31 31 31 31 32 33 33 33 32 32 32 32 33 33 33 33 33 33 33 32 32 31 31 31 31 31 31 31 30 30 29 29 29 29 29 29 29 29 29 29 29 30 30 31 31 32 32 32
35 35 36 39 41 41 42 41 40 40 40 42 42 42 43 46 46 46 47 46 45 45 45 44 44 44 43 43 43 43 43 43 42 40 39 38 37 36 35 34 34 34 34 34 34 34 34 33 33 33 33 33 33 33 32 32 31 31 31 31 30 30 30 30 29 29 29 29 28 28 28 28 28 28 28 28 28 28 29 29 29 30 30 30 31 31
37 36 36 37 37 37 38 38 37 37 38 38 38 39 41 44 44 42 42 43 44 44 45 45 46 45 45 45 45 44 44 44 43 41 40 39 38 38 38 38 37 37 37 37 36 36 36 35 35 35 35 35 34 34 33 32 32 31 31 30 30 30 29 29 29 28 28 28 27 27 27 27 27 27 28 28 28 28 28 28 29 29 29 29 30 30
39 38 37 37 36 36 36 37 39 40 39 38 39 40 41 43 43 41 41 42 42 42 42 43 45 45 45 46 46 46 45 45 44 42 41 41 40 39 39 39 40 40 39 38 38 38 37 37 36 36 36 35 35 34 34 33 32 31 31 30 30 30 29 29 28 28 28 27 27 27 27 27 27 27 27 28 28 28 28 28 28 28 29 29 29 29
40 37 36 37 37 37 38 38 38 39 39 40 41 42 43 43 43 43 43 43 43 42 42 43 43 43 43 44 46 47 46 45 44 43 43 41 40 39 39 39 40 39 39 39 39 39 38 37 36 36 35 35 35 34 33 33 32 32 31 31 30 30 29 29 28 28 28 27 27 27 27 27 27 27 28 28 28 29 28 28 28 28 28 28 28 28
42 41 40 40 39 39 40 39 38 38 40 41 42 43 43 42 42 42 44 45 45 44 43 43 43 42 43 43 44 46 46 44 44 43 43 41 41 40 40 39 39 39 39 39 38 38 37 36 36 35 34 34 34 34 33 32 32 32 31 30 30 30 29 29 29 28 28 28 28 28 28 28 28 28 28 28 28 28 28 28 28 27 27 27 27 27
42 42 42 43 42 42 41 40 41 41 41 40 41 42 41 41 41 41 42 44 45 44 42 42 42 42 43 43 43 44 44 44 43 43 42 42 42 41 41 41 40 39 39 38 38 38 37 36 35 35 34 34 34 33 33 32 32 31 31 30 30 29 29 29 29 29 29 29 28 28 28 28 28 27 27 27 27 27 27 27 27 27 27 27 28 28
39 41 42 42 43 43 42 41 41 41 40 40 40 40 39 40 41 41 41 42 43 43 42 41 41 41 41 41 41 41 41 41 41 41 41 41 41 41 41 40 40 40 39 38 38 37 37 36 35 34 34 33 33 33 32 31 31 30 30 30 30 29 29 29 29 29 29 29 28 28 28 27 27 27 26 26 26 26 26 26 27 27 27 28 28 28
38 40 41 42 44 44 42 41 40 40 40 40 40 39 40 41 41 41 41 41 42 42 41 41 40 39 38 38 38 38 38 37 37 37 38 38 38 38 38 38 38 37 37 36 36 36 35 35 34 33 33 32 32 31 31 30 30 29 29 29 29 29 28 28 28 28 28 28 27 27 26 26 26 25 25 25 25 26 26 26 26 27 27 27 27 27
40 40 40 40 42 43 43 42 41 40 41 42 42 42 41 41 40 41 41 40 40 40 39 39 38 38 37 37 36 36 36 35 34 34 34 35 35 34 34 34 34 34 34 34 34 33 33 33 33 32 31 31 31 31 30 30 30 29 29 29 29 29 28 27 27 26 26 26 26 25 25 25 25 26 26 26 26 26 25 25 25 25 26 26 26 26
Wind_Direction
231 230 229 231 231 229 229 231 232 234 236 235 236 240 241 244 247 246 248 252 253 255 255 256 260 263 263 264 264 265 265 265 267 268 270 271 272 273 273 274 274 274 275 276 276 276 275 273 272 271 270 267 264 261 259 258 257 255 255 254 254 253 252 252 252 252 252 252 252 253 253 254 254 254 255 255 255 254 255 255 255 254 252 252 254 254
231 232 232 233 233 232 230 229 229 232 236 237 238 241 243 244 247 248 250 253 253 256 259 262 267 265 263 265 265 266 266 266 266 266 268 270 271 272 273 274 276 277 278 278 276 275 274 273 272 271 270 267 265 262 260 258 257 256 255 255 254 254 253 252 252 252 252 252 252 253 253 254 254 254 255 256 256 255 256 255 254 254 254 254 255 256
232 234 233 231 230 230 230 230 231 233 236 238 239 242 244 244 248 250 252 255 254 257 262 268 271 268 266 266 265 265 264 266 267 266 268 271 271 272 273 275 277 278 279 278 276 274 273 272 271 271 270 267 266 264 261 259 258 258 257 256 255 254 253 252 253 253 253 253 253 253 254 255 255 255 256 257 258 257 255 255 255 256 256 256 256 255
232 235 235 231 227 227 230 233 232 235 237 239 240 241 244 245 248 250 252 255 256 259 265 271 272 269 267 266 264 264 264 268 270 270 270 271 270 271 273 276 278 279 280 279 278 277 275 273 272 272 271 268 266 265 262 260 259 258 258 257 256 255 254 253 253 253 253 254 254 254 255 255 255 256 256 257 259 257 255 255 256 257 256 257 257 255
234 236 234 231 232 231 230 231 231 235 239 240 240 241 244 244 246 251 256 258 259 261 266 272 272 268 265 266 267 266 266 269 271 272 273 271 269 271 275 277 278 279 281 281 281 279 277 275 274 274 272 270 267 265 263 261 259 259 257 256 256 255 254 254 254 253 253 254 253 254 254 254 254 255 255 256 257 255 255 256 256 257 257 258 258 256
236 234 230 229 235 236 232 233 234 236 239 242 241 241 244 246 247 250 256 261 262 263 267 272 271 267 267 269 268 266 267 269 269 270 272 271 270 272 275 277 279 280 282 283 282 281 280 277 277 276 274 272 270 267 265 262 260 259 258 257 257 257 255 255 254 254 254 254 253 253 253 253 253 253 254 255 255 255 255 256 257 258 258 257 257 256
236 235 233 230 232 234 235 237 236 235 239 242 242 243 245 247 248 250 254 259 262 263 266 269 269 271 273 272 269 269 270 270 271 270 269 270 271 274 276 279 281 283 284 284 283 282 281 279 278 277 275 272 271 269 267 264 261 259 258 257 257 257 257 256 256 255 254 254 254 253 253 254 254 254 255 256 256 256 257 258 258 258 257 257 257 257
235 234 235 233 232 234 235 238 235 233 238 242 245 247 245 245 248 250 253 257 261 266 266 265 267 270 270 270 270 270 271 271 272 270 268 268 271 274 278 281 284 285 286 286 285 283 281 278 278 277 274 271 270 269 267 264 261 259 258 257 257 258 257 257 257 256 255 255 254 254 254 254 255 255 256 256 256 257 257 258 257 257 257 258 259 259
237 234 233 232 234 236 237 240 237 233 240 247 248 248 246 247 249 250 254 256 261 268 265 260 264 268 266 266 268 270 272 272 271 269 269 270 273 276 279 282 284 286 288 289 288 286 283 281 280 280 278 274 271 270 268 265 263 260 259 259 258 258 258 257 257 256 256 256 256 255 255 255 255 256 257 257 257 257 257 257 257 258 259 260 260 261
240 238 237 235 236 238 238 244 243 239 243 245 243 245 246 249 251 252 255 257 261 264 261 255 258 268 270 266 264 268 270 270 270 269 271 276 278 278 279 281 283 286 289 290 289 288 286 285 285 285 283 280 276 272 269 267 265 262 260 259 258 258 259 258 257 257 256 256 256 256 256 256 256 257 257 257 257 257 257 257 258 259 260 261 261 260
241 240 240 239 239 239 238 242 246 245 243 239 241 244 246 249 252 254 256 259 261 261 259 257 258 266 272 266 261 266 269 270 271 271 275 280 281 278 277 278 282 286 288 289 289 287 287 287 288 288 285 282 278 274 270 268 266 264 262 261 259 259 260 259 258 257 256 256 256 257 257 257 257 257 258 257 256 256 257 258 259 259 259 259 259 259
241 240 240 241 241 239 238 241 245 245 242 242 244 244 246 250 252 254 255 255 257 257 260 265 265 262 261 260 265 272 273 274 275 276 278 279 278 277 276 276 281 285 287 288 288 288 289 289 288 287 286 283 279 274 270 269 268 266 264 262 261 260 260 260 258 257 256 256 257 257 257 257 257 257 257 257 256 256 257 258 259 259 259 258 259 259
242 241 241 242 241 240 238 239 242 243 244 245 244 242 245 251 253 253 253 252 254 256 260 266 265 259 258 263 271 273 272 273 271 272 274 273 275 279 278 275 279 283 285 286 287 289 291 291 289 287 284 282 279 275 271 269 268 267 266 264 262 261 260 260 259 257 256 257 257 257 257 257 258 258 257 257 257 258 258 258 259 260 259 258 258 258
242 244 241 240 241 240 239 238 239 241 242 242 241 241 243 247 251 252 252 255 258 258 260 262 261 260 263 268 270 269 271 273 270 268 268 266 271 280 280 276 278 281 282 284 287 290 291 290 288 285 282 280 278 276 272 270 269 268 267 265 263 262 261 261 260 259 258 258 258 258 257 257 258 258 257 257 258 259 259 260 260 260 259 258 258 259
242 245 240 239 241 239 239 242 242 242 242 244 246 246 244 244 248 252 253 256 259 258 257 257 257 257 261 268 269 268 271 275 273 272 272 269 272 279 280 276 277 280 280 283 287 289 290 288 287 284 281 280 278 275 272 270 269 268 268 266 264 262 261 260 261 261 260 260 260 260 258 258 259 258 258 259 260 261 260 260 260 260 259 259 260 261
244 248 244 245 245 238 239 245 245 243 243 246 248 246 246 247 249 254 256 256 258 260 255 252 255 258 262 269 270 269 271 272 273 274 275 273 273 276 277 275 276 278 280 283 286 288 288 287 285 283 280 279 277 276 273 270 269 269 269 267 265 264 262 262 262 262 262 262 262 261 260 260 260 259 259 260 261 261 261 260 260 260 260 261 262 261
245 249 248 249 248 243 244 246 243 243 243 243 243 242 247 251 249 250 255 256 257 259 257 253 258 263 267 269 267 266 269 270 272 273 273 272 272 272 275 276 277 277 278 282 286 287 286 285 284 282 280 279 277 276 274 271 269 269 269 268 266 265 264 263 263 263 263 263 263 262 261 261 261 260 260 260 260 261 260 261 261 261 261 261 261 261
245 249 249 248 246 246 248 246 244 246 245 242 242 243 246 251 250 248 252 254 253 256 259 255 257 261 264 266 266 266 268 270 271 272 272 272 273 273 274 276 276 276 277 281 284 284 283 283 283 282 281 280 278 278 276 273 271 270 270 269 267 265 264 264 265 265 264 264 263 263 262 261 262 261 260 261 260 261 261 262 261 261 261 261 261 261
245 247 249 248 247 246 246 244 242 244 245 244 246 246 246 247 247 245 247 252 252 255 259 256 256 258 257 260 265 267 267 271 272 272 272 273 274 273 273 273 275 276 278 281 282 280 281 282 282 281 281 280 279 279 278 276 273 271 271 271 269 268 266 266 266 266 265 264 264 264 262 262 263 262 261 261 261 261 262 263 262 261 261 262 263 262
243 245 247 247 247 246 243 241 240 240 242 245 245 245 246 248 248 246 246 251 253 254 257 258 256 257 256 259 265 266 267 269 270 271 272 272 272 272 272 274 277 279 279 280 279 277 279 281 281 280 280 280 280 280 279 277 275 272 271 271 270 269 268 267 267 266 265 264 264 264 263 263 263 263 263 263 262 262 262 263 262 261 261 263 264 262
242 244 246 246 246 243 241 242 242 240 239 241 242 241 243 246 248 251 250 249 252 254 256 257 258 258 259 261 263 265 267 267 268 270 271 271 271 271 273 277 280 280 277 277 278 278 279 280 280 280 280 280 280 281 280 278 277 274 271 271 270 270 269 268 267 267 266 265 265 264 263 263 264 264 264 264 264 263 263 263 262 262 262 264 264 262
241 243 244 244 243 243 244 248 248 246 243 243 243 242 242 243 244 249 251 249 251 254 255 257 260 261 261 262 262 264 267 269 268 268 270 271 270 271 274 279 280 278 275 276 278 278 278 278 279 280 280 280 280 280 279 279 278 275 271 270 270 270 270 269 268 267 267 266 266 265 264 264 264 263 263 263 263 263 263 263 263 263 264 264 263 261
243 244 244 244 245 247 249 250 249 250 249 248 248 246 246 246 242 244 250 251 250 252 255 258 261 262 261 261 263 266 268 270 269 268 270 270 270 273 277 279 279 276 275 277 279 279 278 277 277 278 280 280 280 280 278 278 279 276 271 270 270 270 270 269 269 268 268 268 266 265 265 265 264 263 263 262 263 263 263 263 263 264 264 264 262 260
242 243 244 245 248 249 249 249 249 250 249 247 248 248 247 247 246 247 251 253 252 250 252 256 259 261 262 260 262 266 267 268 268 268 268 269 272 277 278 278 276 273 273 277 279 279 276 275 275 278 279 279 280 281 279 277 278 276 273 271 270 270 269 269 269 269 268 268 267 266 265 265 264 263 262 262 262 262 262 263 264 265 265 264 262 260
240 242 243 244 247 247 247 247 246 246 246 247 249 247 246 247 249 249 250 252 254 251 250 253 257 260 262 260 260 263 265 266 267 267 267 270 273 276 277 275 272 271 272 275 277 276 273 270 272 276 278 279 280 281 280 278 277 276 274 273 271 270 270 269 269 269 268 268 266 266 265 264 264 263 262 262 262 262 263 263 264 265 265 263 262 260
242 244 241 241 244 245 244 246 246 247 247 248 250 248 246 245 244 247 249 249 252 252 250 252 256 260 262 260 258 260 263 266 268 268 268 270 273 274 274 272 270 270 272 272 273 273 270 268 270 273 276 278 279 280 279 278 276 275 275 273 272 271 270 269 269 269 268 267 266 266 265 264 263 263 262 262 262 262 263 263 264 265 264 263 262 261
245 247 243 242 244 246 248 251 251 250 248 247 248 248 247 246 244 246 248 248 250 253 252 251 255 260 262 261 260 261 261 264 267 269 270 271 272 272 271 270 270 270 270 270 271 271 270 268 268 272 275 276 277 278 279 278 277 275 275 274 272 271 270 270 270 269 268 267 266 266 265 264 263 263 263 262 262 262 262 263 264 264 264 263 262 262
244 247 246 246 248 249 252 254 252 249 248 248 248 248 247 247 245 244 246 248 250 253 254 254 254 257 261 262 263 262 262 263 266 268 270 271 272 271 271 271 271 269 268 269 269 269 267 266 268 272 274 275 276 277 278 277 277 276 275 274 273 271 270 270 270 269 268 267 266 266 265 264 264 264 263 263 262 262 263 263 264 264 264 263 262 263
245 247 248 249 251 252 254 255 252 250 251 251 250 249 248 247 245 244 247 249 250 251 255 257 257 257 260 263 263 263 263 264 265 266 268 270 272 272 272 271 269 268 267 268 268 265 263 266 270 272 273 274 275 276 277 277 277 276 274 274 273 271 270 270 269 268 268 267 266 266 265 265 265 264 263 263 263 263 263 264 264 263 264 264 263 264
245 248 250 250 252 253 254 254 253 252 253 253 252 252 251 248 246 247 249 251 251 252 256 259 260 260 261 263 264 265 266 266 266 265 266 268 270 271 271 269 269 269 269 267 265 262 263 268 272 272 272 273 274 275 277 277 277 276 274 273 272 271 269 269 268 268 268 268 267 267 266 266 265 265 263 262 262 263 264 264 264 264 263 264 265 265
247 249 251 251 252 253 253 254 254 253 253 254 253 253 253 251 250 250 252 253 253 255 258 259 260 262 263 264 266 268 267 266 266 265 264 265 267 269 270 270 269 269 267 265 263 263 266 270 272 272 272 273 273 274 276 277 276 275 274 272 271 270 269 268 268 268 268 268 268 267 267 266 265 265 264 263 263 264 264 265 265 265 264 264 265 266
248 250 251 250 251 252 252 253 254 254 253 254 253 252 251 251 252 253 254 255 255 256 258 258 259 262 265 266 267 267 266 265 264 264 264 265 265 266 268 268 267 266 266 264 265 266 268 270 270 270 272 273 273 274 275 276 276 275 273 271 270 269 268 268 267 267 268 268 268 267 267 266 265 265 264 264 264 264 265 265 266 266 264 264 264 265
246 248 249 249 249 251 252 253 255 255 254 252 252 251 251 252 254 255 256 256 255 256 257 257 259 263 266 267 267 266 265 266 265 265 265 265 265 265 265 264 264 265 265 266 267 268 269 269 269 270 272 273 273 275 275 274 275 274 273 271 270 269 268 268 267 267 267 267 267 267 266 266 266 265 265 265 264 264 264 265 265 266 265 264 264 265
246 246 248 248 249 251 253 253 254 253 251 252 253 253 253 254 254 255 255 256 255 256 258 261 264 266 267 266 266 266 267 267 266 265 264 264 264 264 263 263 263 264 265 266 268 268 268 268 269 270 272 273 273 275 275 274 274 274 273 271 270 269 268 267 267 267 268 268 268 267 267 267 266 266 266 265 265 264 264 264 265 266 265 265 265 266
245 246 247 248 249 251 253 252 250 250 250 255 259 257 255 255 255 255 257 258 257 257 259 262 264 266 265 265 266 268 269 268 267 266 264 264 263 263 263 263 264 265 266 266 267 267 267 267 268 270 271 272 273 274 274 274 273 272 272 271 270 269 268 268 267 268 268 269 268 268 268 267 267 267 266 266 265 264 264 264 264 265 265 265 266 266
245 246 248 248 249 251 251 248 249 253 255 257 258 257 256 257 256 257 259 259 258 258 258 260 261 263 264 265 267 268 269 270 269 267 265 263 263 263 264 264 264 265 265 266 266 265 265 266 268 269 270 272 272 273 272 272 271 271 272 272 271 269 268 268 268 268 269 268 268 267 267 267 267 266 266 265 265 264 264 263 264 265 266 266 266 267
245 246 248 248 249 249 250 250 253 258 258 256 254 254 254 256 257 258 260 260 260 259 259 260 262 263 265 266 267 268 268 270 271 268 265 264 264 263 263 263 264 264 264 264 263 263 265 266 268 269 270 271 271 271 271 271 271 271 271 271 271 270 269 268 268 269 268 268 267 267 267 266 266 266 266 265 265 265 264 264 264 264 265 266 266 267
245 246 247 248 249 249 250 253 254 255 255 253 254 254 255 257 258 258 259 261 261 259 259 261 263 264 265 267 267 266 267 268 269 268 268 266 264 263 263 263 264 265 263 262 262 263 265 266 267 268 268 269 269 270 270 270 270 270 270 270 270 270 269 269 269 269 268 268 267 267 266 266 266 266 266 266 266 265 264 264 264 264 265 266 266 268
245 246 246 248 249 248 249 251 251 252 253 254 256 256 255 254 256 257 258 259 259 259 259 260 262 264 265 266 264 263 264 266 267 269 270 268 264 263 262 262 263 264 263 263 264 265 266 266 266 267 267 267 268 268 269 269 269 269 269 269 269 269 269 269 268 268 267 267 266 266 266 266 266 266 266 266 265 265 264 264 264 265 266 267 268 269
244 245 245 246 247 247 248 251 252 253 255 255 257 257 255 253 253 254 255 256 258 259 259 258 260 263 263 263 262 260 261 263 267 270 271 268 266 265 262 262 263 264 264 265 266 267 267 266 266 265 266 266 267 267 268 268 268 268 269 269 269 269 269 268 268 267 267 266 266 266 266 266 266 265 265 265 265 265 265 265 265 266 267 269 270 271
244 245 245 246 247 247 248 251 254 255 256 257 258 257 255 253 251 249 252 257 260 261 259 258 258 260 261 261 262 261 261 262 265 268 268 268 267 266 264 263 264 264 264 265 266 266 265 265 265 266 266 266 267 267 267 267 267 268 268 268 268 268 268 268 267 267 267 266 266 266 266 266 265 265 265 264 264 265 265 265 266 267 268 270 272 272
245 245 246 246 247 248 249 251 255 257 256 256 258 257 254 252 251 253 257 262 263 262 262 260 259 260 261 261 261 261 261 262 264 265 265 265 266 266 264 264 264 264 264 264 264 264 263 264 265 266 266 266 266 266 266 266 266 266 266 267 267 267 267 267 267 266 266 266 266 266 265 265 264 264 264 264 264 264 265 267 268 269 270 271 271 272
246 246 246 245 246 249 250 250 253 257 257 257 258 257 254 253 256 260 264 264 264 263 263 262 260 260 261 261 261 261 262 263 264 264 263 263 264 264 263 263 264 264 263 263 263 263 263 264 265 265 265 265 264 264 264 264 265 265 266 266 267 267 266 266 266 265 265 265 265 264 264 263 263 263 264 264 264 265 266 268 269 269 270 271 271 271
247 247 248 248 248 249 249 249 252 256 259 260 258 257 257 258 262 266 266 264 263 263 263 262 261 260 259 260 260 261 261 262 263 263 262 263 263 263 262 263 264 263 263 263 263 262 262 264 264 264 264 263 263 263 263 264 264 265 265 266 266 265 265 265 264 264 264 264 264 263 263 263 263 264 264 264 265 266 267 268 268 269 270 270 270 270
246 247 249 251 250 250 250 253 256 258 259 260 259 260 262 264 266 267 267 266 264 264 263 263 262 261 260 260 260 260 261 262 263 262 262 263 263 262 262 262 263 263 263 263 263 262 262 263 263 263 262 262 261 262 263 263 263 264 264 264 264 263 263 263 263 263 263 264 264 264 264 265 265 265 265 265 266 266 267 267 268 269 269 269 269 269
248 248 250 251 252 253 253 253 256 259 260 261 262 262 262 263 264 266 266 265 265 265 265 264 263 263 263 263 262 262 262 262 262 262 262 263 262 261 260 261 261 262 263 263 263 262 262 261 261 260 260 260 260 260 261 262 262 262 262 262 262 262 262 262 262 263 263 264 265 265 265 265 265 265 265 265 266 267 267 267 268 268 269 269 269 270
249 247 249 252 253 255 256 253 253 258 261 262 264 263 262 262 262 263 264 263 264 265 265 263 263 263 263 263 263 263 263 263 262 262 261 261 260 259 259 259 259 260 261 262 262 261 259 259 258 258 258 258 259 259 259 260 261 261 260 260 260 261 261 261 262 263 263 263 264 264 264 263 263 263 264 265 266 266 267 267 268 268 268 269 270 270
250 248 249 251 251 253 256 257 257 259 261 262 263 263 263 263 263 262 262 263 263 263 262 261 261 262 263 263 263 264 264 263 263 262 261 259 259 258 258 258 259 260 261 261 260 259 258 258 257 256 256 256 257 257 258 259 260 260 260 260 260 260 260 261 262 262 262 262 262 262 262 262 262 262 263 264 265 266 266 267 268 268 269 270 270 271
252 251 250 251 252 254 256 258 259 261 261 260 260 261 262 264 265 264 263 262 261 261 261 260 261 262 262 262 263 263 263 263 263 262 260 259 258 258 258 259 259 259 259 258 257 257 257 256 256 255 255 256 256 257 257 257 258 258 259 260 259 259 259 259 259 260 260 260 260 261 261 261 262 262 263 264 265 266 267 268 269 269 270 271 271 271
252 252 252 253 254 254 254 255 257 260 261 260 260 261 263 265 265 265 264 263 261 260 260 259 260 261 261 262 262 262 262 263 263 260 258 258 258 258 259 259 259 259 258 256 255 255 254 254 253 253 254 255 255 255 255 255 256 257 258 258 258 257 256 256 256 257 258 259 260 260 260 261 262 262 263 264 265 266 268 269 270 270 270 271 271 272
250 252 253 255 255 255 255 256 257 259 261 261 262 263 265 265 264 265 265 264 262 260 259 258 258 258 260 261 262 261 260 261 260 258 256 256 256 256 257 257 258 258 257 254 253 252 251 250 250 251 253 254 254 254 254 254 255 255 255 255 255 255 255 255 256 257 258 259 259 260 260 260 260 261 262 263 264 265 266 267 269 271 271 272 272 273